This is the latest recevied weather packets stored in our database for station/object KB3VSP. If no packets are shown the sender has not sent any weather packets the latest 10 day(s).
| Time | Temp. | Humidity | Pressure | Rain* | Wind** | Luminosity | Snow |
|---|---|---|---|---|---|---|---|
| 1778044976 | 14.44° C | 99% | 1008.4 hPa | 3.05 mm | - | 0 W/m² | - |
| 1778044668 | 14.44° C | 99% | 1008.3 hPa | 1.27 mm | - | 0 W/m² | - |
| 1778044364 | 14.44° C | 98% | 1008.6 hPa | 0 mm | - | 0 W/m² | - |
| 1778044062 | 14.44° C | 98% | 1008.7 hPa | 1.78 mm | - | 0 W/m² | - |
| 1778043759 | 14.44° C | 98% | 1008.6 hPa | 1.78 mm | - | 0 W/m² | - |
| 1778043456 | 14.44° C | 97% | 1008.7 hPa | 1.27 mm | - | 0 W/m² | - |
| 1778043153 | 14.44° C | 97% | 1008.9 hPa | 3.05 mm | - | 0 W/m² | - |
| 1778042850 | 15° C | 97% | 1008.8 hPa | 1.78 mm | - | 0 W/m² | - |
| 1778042547 | 15° C | 96% | 1008.8 hPa | 1.78 mm | - | 0 W/m² | - |
| 1778042245 | 15° C | 96% | 1008.8 hPa | 1.27 mm | - | 0 W/m² | - |
| 1778041942 | 15° C | 95% | 1008.8 hPa | 1.27 mm | - | 0 W/m² | - |
| 1778041641 | 15° C | 94% | 1008.9 hPa | 0 mm | - | 0 W/m² | - |
| 1778041339 | 15° C | 94% | 1009 hPa | 0 mm | - | 0 W/m² | - |
| 1778041037 | 15° C | 93% | 1008.8 hPa | 0 mm | - | 0 W/m² | - |
| 1778040734 | 15° C | 93% | 1008.6 hPa | 0 mm | - | 0 W/m² | - |
| 1778040431 | 15° C | 93% | 1008.6 hPa | 0 mm | - | 0 W/m² | - |
| 1778040128 | 15° C | 92% | 1008.6 hPa | 0 mm | - | 0 W/m² | - |
| 1778039824 | 15° C | 92% | 1008.7 hPa | 0 mm | - | 0 W/m² | - |
| 1778039521 | 15° C | 92% | 1008.8 hPa | 0 mm | - | 0 W/m² | - |
| 1778039218 | 15° C | 91% | 1008.7 hPa | 0 mm | - | 0 W/m² | - |
| 1778038916 | 15° C | 91% | 1008.6 hPa | 0 mm | - | 0 W/m² | - |
| 1778038613 | 15° C | 91% | 1008.7 hPa | 0 mm | - | 0 W/m² | - |
| 1778038309 | 15° C | 91% | 1008.6 hPa | 0 mm | - | 0 W/m² | - |
| 1778038007 | 15° C | 90% | 1008.5 hPa | 0 mm | - | 0 W/m² | - |
| 1778037703 | 15° C | 90% | 1008.8 hPa | 0 mm | - | 0 W/m² | - |
* Rain latest hour (hover to see other rain measurements)
** Current wind speed in m/s (hover to see current wind gust speed)